User: anonymous   Login
Location: Fort Wayne
(41.1310°N, 85.1290°W)
Time: 09:32:47
(UTC-04:00)
Language:

Cosmos 1953 - Orbit

View from above orbital plane
View from above orbital plane
View from above satellite
View from above satellite

Ground track
Ground track

The orbit data is extracted from the following two-line orbital elements,

1 19210U 88050A   18170.72737924 +.00000004 +00000-0 -17635-5 0  9994
2 19210 082.5178 036.9521 0014813 087.7781 272.5142 15.05581888612008
Epoch (UTC): 19 June 2018 17:27:25
Eccentricity: 0.0014813
inclination: 82.5178°
perigee height: 539 km
apogee height: 560 km
right ascension of ascending node: 36.9521°
argument of perigee: 87.7781°
revolutions per day: 15.05581888
mean anomaly at epoch: 272.5142°
orbit number at epoch: 61200

The dashed part of the orbit path shows where the satellite is in the earth's shadow,  

DLR